Regional Weather Roundup
Issued by NWS Kansas City/Pleasant Hill, MO

Home | Current Version | Previous Version | Text Only | Print | Product List | Glossary On
Versions: 1 2 3 4 5 6 7 8 9 10 11 12 13 14 15 16 17 18 19 20 21 22 23 24 25 26 27 28 29 30 31 32 33 34 35 36 37 38 39 40 41 42 43 44 45 46 47 48 49 50
000
ASUS43 KEAX 111810
RWREAX

WEATHER ROUNDUP FOR EASTERN KANSAS AND NORTHWEST MISSOURI
NATIONAL WEATHER SERVICE KANSAS CITY/PLEASANT HILL MO
1200 PM CST THU FEB 11 2016

KSZ040-057-103>105-MOZ028-029-037-043-111900-
...KANSAS CITY METROPOLITAN AREA...

CITY           SKY/WX    TMP DP  RH WIND       PRES   REMARKS
K.C. INTL      PTSUNNY   30  20  66 E8        30.28F WCI  22
6HR MIN TEMP:  18; 6HR MAX TEMP:  31;

K.C. DOWNTOWN  MOSUNNY   33  19  56 E9        30.29F WCI  25
6HR MIN TEMP:  22; 6HR MAX TEMP:  34;

LEES SUMMIT    SUNNY     32  21  64 E9        30.27F WCI  24
6HR MIN TEMP:  21; 6HR MAX TEMP:  32;

OLATHE - IXD   SUNNY     34  20  56 E9        30.27F WCI  27
6HR MIN TEMP:  21; 6HR MAX TEMP:  34;

OLATHE - OJC   SUNNY     32  19  58 E9        30.26F WCI  24
6HR MIN TEMP:  21; 6HR MAX TEMP:  33;

LAWRENCE       SUNNY     33  20  58 SE8       30.29F WCI  26

$$

MOZ001>008-011>017-020>025-030>033-038>040-044>046-053-054-111900-
...NORTHERN AND CENTRAL MISSOURI...

CITY           SKY/WX    TMP DP  RH WIND       PRES   REMARKS
ST. JOSEPH     SUNNY     30  17  58 SE7       30.31F WCI  23
6HR MIN TEMP:  20; 6HR MAX TEMP:  30;

MOSBY          CLEAR     32  19  59 E5        30.31S WCI  27
WARRENSBURG    SUNNY     34  21  60 E3        30.28F
WHITEMAN AFB   MOSUNNY   34  20  56 E8        30.27F WCI  27
6HR MIN TEMP:  20; 6HR MAX TEMP:  34;

CLINTON          N/A     36  21  55 E9        30.27F WCI  29
SEDALIA        SUNNY     34  18  52 E9        30.29F WCI  27
6HR MIN TEMP:  21; 6HR MAX TEMP:  34;

WARSAW         NOT AVBL
CHILLICOTHE      N/A     28  11  48 E7        30.34S WCI  21
6HR MIN TEMP:  20; 6HR MAX TEMP:  29;

KIRKSVILLE     SUNNY     20   3  48 E3        30.34R
6HR MIN TEMP:  12; 6HR MAX TEMP:  21;


$$

MOZ041-047>049-056>058-063>065-088>090-097-111900-
...EASTERN AND SOUTHERN MISSOURI...

CITY           SKY/WX    TMP DP  RH WIND       PRES   REMARKS
ST. LOUIS INTL MOSUNNY   26  12  55 CALM      30.34F
6HR MIN TEMP:  23; 6HR MAX TEMP:  27;

SPIRIT OF STL  MOSUNNY   27  17  66 NE5       30.34F WCI  22
COLUMBIA       SUNNY     29  17  61 E8        30.28F WCI  21
JEFFERSON CITY SUNNY     31  18  58 E6        30.30F WCI  25
ROLLA          SUNNY     32  21  64 N9        30.26S WCI  24
OSAGE BEACH    SUNNY     36  18  48 E9        30.27F WCI  29
SPRINGFIELD    SUNNY     41  16  36 NE7       30.21S
BRANSON        SUNNY     41  16  36 NE5       30.21F
JOPLIN         SUNNY     41  21  44 NE12G18   30.23F WCI  34
WEST PLAINS    SUNNY     40  16  37 VRB5      30.22F

$$

IAZ060-094-KSZ022-034>040-054-083-096-NEZ052-066-093-111900-
...KANSAS...SOUTHEAST NEBRASKA AND IOWA...

CITY           SKY/WX    TMP DP  RH WIND       PRES   REMARKS
TOPEKA         SUNNY     35  21  56 VRB6      30.29F WCI  30
6HR MIN TEMP:  22; 6HR MAX TEMP:  35;

MANHATTAN      CLOUDY    29  22  75 SE3       30.28F
EMPORIA        SUNNY     35  21  56 E10       30.24F WCI  27
CHANUTE        SUNNY     39  22  50 NE10      30.25F WCI  32
WICHITA        PTSUNNY   41  23  48 NE8       30.22F
OMAHA          CLOUDY    19   7  59 SE5       30.31F WCI  12
LINCOLN        CLOUDY    24  18  77 SE6       30.29F WCI  17
FALLS CITY     MOSUNNY   30  18  60 S7        30.30  WCI  23
LAMONI         SUNNY     23   2  40 VRB5      30.30F WCI  17
DES MOINES     CLOUDY    16   0  49 S5        30.34F WCI   9

$$





USA.gov is the U.S. government's official web portal to all federal, state and local government web resources and services.